Time,TemperatureF,DewpointF,PressureIn,WindDirection,WindDirectionDegrees,WindSpeedMPH,WindSpeedGustMPH,Humidity,HourlyPrecipIn,Conditions,Clouds,dailyrainin,SolarRadiationWatts/m^2,SoftwareType,DateUTC
2013-10-15 00:04:00,64.0,60.0,-100.00,SSE,153,1.0,5.0,87,0.00,,,0.00,0.000000,,2013-10-15 04:04:00,
2013-10-15 00:12:00,64.0,60.0,-100.00,SE,146,1.0,5.0,86,0.00,,,0.00,0.000000,,2013-10-15 04:12:00,
2013-10-15 00:44:00,64.0,60.0,-100.00,SE,146,1.0,5.0,86,0.00,,,0.00,0.000000,,2013-10-15 04:44:00,
2013-10-15 00:54:00,64.0,60.0,-100.00,SE,146,1.0,5.0,86,0.00,,,0.00,0.000000,,2013-10-15 04:54:00,
2013-10-15 01:03:00,64.0,60.0,-100.00,SE,146,1.0,5.0,86,0.00,,,0.00,0.000000,,2013-10-15 05:03:00,
2013-10-15 01:12:00,64.0,59.0,-100.00,North,11,0.0,9.0,84,0.00,,,0.00,0.000000,,2013-10-15 05:12:00,
2013-10-15 01:42:00,64.0,59.0,-100.00,North,11,0.0,9.0,84,0.00,,,0.00,0.000000,,2013-10-15 05:42:00,
2013-10-15 01:53:00,64.0,59.0,-100.00,North,11,0.0,9.0,84,0.00,,,0.00,0.000000,,2013-10-15 05:53:00,
2013-10-15 02:02:00,64.0,59.0,-100.00,North,11,0.0,9.0,84,0.00,,,0.00,0.000000,,2013-10-15 06:02:00,
2013-10-15 02:12:00,64.0,59.0,-100.00,NNE,26,1.0,6.0,83,0.00,,,0.00,0.000000,,2013-10-15 06:12:00,
2013-10-15 02:43:00,64.0,59.0,-100.00,NNE,26,1.0,6.0,83,0.00,,,0.00,0.000000,,2013-10-15 06:43:00,
2013-10-15 02:52:00,64.0,59.0,-100.00,NNE,26,1.0,6.0,83,0.00,,,0.00,0.000000,,2013-10-15 06:52:00,
2013-10-15 03:02:00,64.0,59.0,-100.00,NNE,26,1.0,6.0,83,0.00,,,0.00,0.000000,,2013-10-15 07:02:00,
2013-10-15 03:12:00,63.0,58.0,-100.00,SE,131,0.0,4.0,83,0.00,,,0.00,0.000000,,2013-10-15 07:12:00,
2013-10-15 03:42:00,63.0,58.0,-100.00,SE,131,0.0,4.0,83,0.00,,,0.00,0.000000,,2013-10-15 07:42:00,
2013-10-15 03:53:00,63.0,58.0,-100.00,SE,131,0.0,4.0,83,0.00,,,0.00,0.000000,,2013-10-15 07:53:00,
2013-10-15 04:02:00,63.0,58.0,-100.00,SE,131,0.0,4.0,83,0.00,,,0.00,0.000000,,2013-10-15 08:02:00,
2013-10-15 04:12:00,63.0,58.0,-100.00,North,11,0.0,5.0,83,0.00,,,0.00,0.000000,,2013-10-15 08:12:00,
2013-10-15 04:42:00,63.0,58.0,-100.00,North,11,0.0,5.0,83,0.00,,,0.00,0.000000,,2013-10-15 08:42:00,
2013-10-15 04:52:00,63.0,58.0,-100.00,North,11,0.0,5.0,83,0.00,,,0.00,0.000000,,2013-10-15 08:52:00,
2013-10-15 05:02:00,63.0,58.0,-100.00,North,11,0.0,5.0,83,0.00,,,0.00,0.000000,,2013-10-15 09:02:00,
2013-10-15 05:12:00,63.0,58.0,-100.00,NNE,16,0.0,3.0,84,0.00,,,0.00,0.000000,,2013-10-15 09:12:00,
2013-10-15 05:43:00,63.0,58.0,-100.00,NNE,16,0.0,3.0,84,0.00,,,0.00,0.000000,,2013-10-15 09:43:00,
2013-10-15 05:53:00,63.0,58.0,-100.00,NNE,16,0.0,3.0,84,0.00,,,0.00,0.000000,,2013-10-15 09:53:00,
2013-10-15 06:03:00,63.0,58.0,-100.00,NNE,16,0.0,3.0,84,0.00,,,0.00,0.000000,,2013-10-15 10:03:00,
2013-10-15 06:12:00,62.0,57.0,-100.00,NNW,343,0.0,6.0,85,0.00,,,0.00,0.000000,,2013-10-15 10:12:00,
2013-10-15 06:43:00,62.0,57.0,-100.00,NNW,343,0.0,6.0,85,0.00,,,0.00,0.000000,,2013-10-15 10:43:00,
2013-10-15 06:53:00,62.0,57.0,-100.00,NNW,343,0.0,6.0,85,0.00,,,0.00,0.000000,,2013-10-15 10:53:00,
2013-10-15 07:02:00,62.0,57.0,-100.00,NNW,343,0.0,6.0,85,0.00,,,0.00,0.000000,,2013-10-15 11:02:00,
2013-10-15 07:12:00,62.0,57.0,-100.00,NE,48,0.0,6.0,85,0.00,,,0.00,0.000000,,2013-10-15 11:12:00,
2013-10-15 07:42:00,62.0,57.0,-100.00,NE,48,0.0,6.0,85,0.00,,,0.00,0.000000,,2013-10-15 11:42:00,
2013-10-15 07:53:00,62.0,57.0,-100.00,NE,48,0.0,6.0,85,0.00,,,0.00,0.000000,,2013-10-15 11:53:00,
2013-10-15 08:01:00,62.0,57.0,-100.00,NE,48,0.0,6.0,85,0.00,,,0.00,0.000000,,2013-10-15 12:01:00,
2013-10-15 08:42:00,62.0,58.0,-100.00,North,10,0.0,5.0,86,0.00,,,0.00,6.000000,,2013-10-15 12:42:00,
2013-10-15 08:52:00,62.0,58.0,-100.00,North,10,0.0,5.0,86,0.00,,,0.00,6.000000,,2013-10-15 12:52:00,
2013-10-15 09:02:00,62.0,58.0,-100.00,North,10,0.0,5.0,86,0.00,,,0.00,6.000000,,2013-10-15 13:02:00,
2013-10-15 09:11:00,62.0,58.0,-100.00,North,10,0.0,5.0,86,0.00,,,0.00,6.000000,,2013-10-15 13:11:00,
2013-10-15 09:12:00,63.0,57.0,-100.00,ENE,64,1.0,6.0,82,0.00,,,0.00,56.000000,,2013-10-15 13:12:00,
2013-10-15 09:42:00,63.0,57.0,-100.00,ENE,64,1.0,6.0,82,0.00,,,0.00,56.000000,,2013-10-15 13:42:00,
2013-10-15 09:52:00,63.0,57.0,-100.00,ENE,64,1.0,6.0,82,0.00,,,0.00,56.000000,,2013-10-15 13:52:00,
2013-10-15 10:02:00,63.0,57.0,-100.00,ENE,64,1.0,6.0,82,0.00,,,0.00,56.000000,,2013-10-15 14:02:00,
2013-10-15 10:42:00,65.0,56.0,-100.00,East,84,1.0,8.0,74,0.00,,,0.00,198.000000,,2013-10-15 14:42:00,
2013-10-15 10:52:00,65.0,56.0,-100.00,East,84,1.0,8.0,74,0.00,,,0.00,198.000000,,2013-10-15 14:52:00,
2013-10-15 11:02:00,65.0,56.0,-100.00,East,84,1.0,8.0,74,0.00,,,0.00,198.000000,,2013-10-15 15:02:00,
2013-10-15 11:11:00,65.0,56.0,-100.00,East,84,1.0,8.0,74,0.00,,,0.00,198.000000,,2013-10-15 15:11:00,
2013-10-15 11:12:00,67.0,57.0,-100.00,ENE,69,1.0,9.0,70,0.00,,,0.00,240.000000,,2013-10-15 15:12:00,
2013-10-15 11:44:00,67.0,57.0,-100.00,ENE,69,1.0,9.0,70,0.00,,,0.00,240.000000,,2013-10-15 15:44:00,
2013-10-15 11:53:00,67.0,57.0,-100.00,ENE,69,1.0,9.0,70,0.00,,,0.00,240.000000,,2013-10-15 15:53:00,
2013-10-15 12:03:00,67.0,57.0,-100.00,ENE,69,1.0,9.0,70,0.00,,,0.00,240.000000,,2013-10-15 16:03:00,
2013-10-15 12:12:00,70.0,55.0,-100.00,NE,35,1.0,7.0,58,0.00,,,0.00,458.000000,,2013-10-15 16:12:00,
2013-10-15 12:43:00,70.0,55.0,-100.00,NE,35,1.0,7.0,58,0.00,,,0.00,458.000000,,2013-10-15 16:43:00,
2013-10-15 12:53:00,70.0,55.0,-100.00,NE,35,1.0,7.0,58,0.00,,,0.00,458.000000,,2013-10-15 16:53:00,
2013-10-15 13:03:00,70.0,55.0,-100.00,NE,35,1.0,7.0,58,0.00,,,0.00,458.000000,,2013-10-15 17:03:00,
2013-10-15 13:12:00,74.0,53.0,-100.00,NNE,17,2.0,7.0,48,0.00,,,0.00,748.000000,,2013-10-15 17:12:00,
2013-10-15 13:43:00,74.0,53.0,-100.00,NNE,17,2.0,7.0,48,0.00,,,0.00,748.000000,,2013-10-15 17:43:00,
2013-10-15 13:53:00,74.0,53.0,-100.00,NNE,17,2.0,7.0,48,0.00,,,0.00,748.000000,,2013-10-15 17:53:00,
2013-10-15 14:02:00,74.0,53.0,-100.00,NNE,17,2.0,7.0,48,0.00,,,0.00,748.000000,,2013-10-15 18:02:00,
2013-10-15 14:12:00,76.0,52.0,-100.00,NNE,23,1.0,6.0,44,0.00,,,0.00,711.000000,,2013-10-15 18:12:00,
2013-10-15 14:42:00,76.0,52.0,-100.00,NNE,23,1.0,6.0,44,0.00,,,0.00,711.000000,,2013-10-15 18:42:00,
2013-10-15 14:52:00,76.0,52.0,-100.00,NNE,23,1.0,6.0,44,0.00,,,0.00,711.000000,,2013-10-15 18:52:00,
2013-10-15 15:01:00,76.0,52.0,-100.00,NNE,23,1.0,6.0,44,0.00,,,0.00,711.000000,,2013-10-15 19:01:00,
2013-10-15 15:12:00,77.0,53.0,-100.00,North,8,1.0,6.0,44,0.00,,,0.00,571.000000,,2013-10-15 19:12:00,
2013-10-15 15:42:00,77.0,53.0,-100.00,North,8,1.0,6.0,44,0.00,,,0.00,571.000000,,2013-10-15 19:42:00,
2013-10-15 15:52:00,77.0,53.0,-100.00,North,8,1.0,6.0,44,0.00,,,0.00,571.000000,,2013-10-15 19:52:00,
2013-10-15 16:03:00,77.0,53.0,-100.00,North,8,1.0,6.0,44,0.00,,,0.00,571.000000,,2013-10-15 20:03:00,
2013-10-15 16:12:00,76.0,54.0,-100.00,NNE,32,0.0,4.0,47,0.00,,,0.00,306.000000,,2013-10-15 20:12:00,
2013-10-15 16:42:00,76.0,54.0,-100.00,NNE,32,0.0,4.0,47,0.00,,,0.00,306.000000,,2013-10-15 20:42:00,
2013-10-15 16:52:00,76.0,54.0,-100.00,NNE,32,0.0,4.0,47,0.00,,,0.00,306.000000,,2013-10-15 20:52:00,
2013-10-15 17:02:00,76.0,54.0,-100.00,NNE,32,0.0,4.0,47,0.00,,,0.00,306.000000,,2013-10-15 21:02:00,
2013-10-15 17:12:00,76.0,53.0,-100.00,ENE,75,1.0,5.0,45,0.00,,,0.00,287.000000,,2013-10-15 21:12:00,
2013-10-15 17:44:00,76.0,53.0,-100.00,ENE,75,1.0,5.0,45,0.00,,,0.00,287.000000,,2013-10-15 21:44:00,
2013-10-15 17:54:00,76.0,53.0,-100.00,ENE,75,1.0,5.0,45,0.00,,,0.00,287.000000,,2013-10-15 21:54:00,
2013-10-15 18:04:00,76.0,53.0,-100.00,ENE,75,1.0,5.0,45,0.00,,,0.00,287.000000,,2013-10-15 22:04:00,
2013-10-15 18:12:00,73.0,56.0,-100.00,NE,34,0.0,3.0,56,0.00,,,0.00,102.000000,,2013-10-15 22:12:00,
2013-10-15 18:43:00,73.0,56.0,-100.00,NE,34,0.0,3.0,56,0.00,,,0.00,102.000000,,2013-10-15 22:43:00,
2013-10-15 18:54:00,73.0,56.0,-100.00,NE,34,0.0,3.0,56,0.00,,,0.00,102.000000,,2013-10-15 22:54:00,
2013-10-15 19:03:00,73.0,56.0,-100.00,NE,34,0.0,3.0,56,0.00,,,0.00,102.000000,,2013-10-15 23:03:00,
2013-10-15 19:12:00,66.0,56.0,-100.00,NNE,26,0.0,1.0,71,0.00,,,0.00,16.000000,,2013-10-15 23:12:00,
2013-10-15 19:43:00,66.0,56.0,-100.00,NNE,26,0.0,1.0,71,0.00,,,0.00,16.000000,,2013-10-15 23:43:00,
2013-10-15 19:53:00,66.0,56.0,-100.00,NNE,26,0.0,1.0,71,0.00,,,0.00,16.000000,,2013-10-15 23:53:00,
2013-10-15 20:02:00,66.0,56.0,-100.00,NNE,26,0.0,1.0,71,0.00,,,0.00,16.000000,,2013-10-16 00:02:00,
2013-10-15 20:42:00,62.0,56.0,-100.00,ESE,118,0.0,0.0,81,0.00,,,0.00,0.000000,,2013-10-16 00:42:00,
2013-10-15 20:52:00,62.0,56.0,-100.00,ESE,118,0.0,0.0,81,0.00,,,0.00,0.000000,,2013-10-16 00:52:00,
2013-10-15 21:02:00,62.0,56.0,-100.00,ESE,118,0.0,0.0,81,0.00,,,0.00,0.000000,,2013-10-16 01:02:00,
2013-10-15 21:11:00,62.0,56.0,-100.00,ESE,118,0.0,0.0,81,0.00,,,0.00,0.000000,,2013-10-16 01:11:00,
2013-10-15 21:12:00,60.0,56.0,-100.00,ENE,69,0.0,0.0,87,0.00,,,0.00,0.000000,,2013-10-16 01:12:00,
2013-10-15 21:42:00,60.0,56.0,-100.00,ENE,69,0.0,0.0,87,0.00,,,0.00,0.000000,,2013-10-16 01:42:00,
2013-10-15 21:53:00,60.0,56.0,-100.00,ENE,69,0.0,0.0,87,0.00,,,0.00,0.000000,,2013-10-16 01:53:00,
2013-10-15 22:02:00,60.0,56.0,-100.00,ENE,69,0.0,0.0,87,0.00,,,0.00,0.000000,,2013-10-16 02:02:00,
2013-10-15 22:43:00,59.0,56.0,-100.00,ENE,69,0.0,0.0,91,0.00,,,0.00,0.000000,,2013-10-16 02:43:00,
2013-10-15 22:52:00,59.0,56.0,-100.00,ENE,69,0.0,0.0,91,0.00,,,0.00,0.000000,,2013-10-16 02:52:00,
2013-10-15 23:02:00,59.0,56.0,-100.00,ENE,69,0.0,0.0,91,0.00,,,0.00,0.000000,,2013-10-16 03:02:00,
2013-10-15 23:11:00,59.0,56.0,-100.00,ENE,69,0.0,0.0,91,0.00,,,0.00,0.000000,,2013-10-16 03:11:00,
2013-10-15 23:12:00,58.0,55.0,-100.00,ENE,68,0.0,0.0,91,0.00,,,0.00,0.000000,,2013-10-16 03:12:00,
2013-10-15 23:45:00,58.0,55.0,-100.00,ENE,68,0.0,0.0,91,0.00,,,0.00,0.000000,,2013-10-16 03:45:00,
2013-10-15 23:55:00,58.0,55.0,-100.00,ENE,68,0.0,0.0,91,0.00,,,0.00,0.000000,,2013-10-16 03:55:00,